| time (UTC) | temp C | wind direction | speed KPH | gust KPH | rain 1hr cm | rain 24hr cm | rain mn cm | humidity % | barometer mb |
| 20260508151644 | 14 | 336 | 6.4 | 27.4 | 0.00 | 0.00 | 0.00 | 61 | 1019.9 |
| 20260508150030 | 13 | 332 | 12.9 | 25.7 | 0.00 | 0.00 | 0.00 | 62 | 1019.7 |
| 20260508144530 | 12 | 1 | 6.4 | 17.7 | 0.00 | 0.00 | 0.00 | 62 | 1019.6 |
| 20260508143032 | 12 | 357 | 9.7 | 20.9 | 0.00 | 0.00 | 0.00 | 61 | 1019.3 |
| 20260508141527 | 12 | 351 | 8.0 | 20.9 | 0.00 | 0.00 | 0.00 | 61 | 1019.2 |
| 20260508140032 | 12 | 342 | 9.7 | 20.9 | 0.00 | 0.00 | 0.00 | 63 | 1019.1 |
| 20260508134530 | 11 | 316 | 8.0 | 17.7 | 0.00 | 0.00 | 0.00 | 65 | 1019.0 |
| 20260508133030 | 11 | 321 | 4.8 | 24.1 | 0.00 | 0.00 | 0.00 | 67 | 1018.9 |
| 20260508131531 | 11 | 343 | 8.0 | 17.7 | 0.00 | 0.00 | 0.00 | 71 | 1018.7 |
| 20260508130032 | 10 | 341 | 8.0 | 20.9 | 0.00 | 0.00 | 0.00 | 76 | 1018.6 |
| 20260508124532 | 7 | 349 | 9.7 | 20.9 | 0.00 | 0.00 | 0.00 | 82 | 1018.4 |
| 20260508123032 | 5 | 322 | 3.2 | 12.9 | 0.00 | 0.00 | 0.00 | 81 | 1018.3 |
| 20260508121530 | 5 | 136 | 0.0 | 4.8 | 0.00 | 0.00 | 0.00 | 79 | 1018.2 |
| 20260508120032 | 5 | 179 | 1.6 | 4.8 | 0.00 | 0.00 | 0.00 | 77 | 1018.1 |
| 20260508114531 | 5 | 157 | 0.0 | 6.4 | 0.00 | 0.00 | 0.00 | 75 | 1018.1 |
| 20260508113146 | 5 | 187 | 1.6 | 9.7 | 0.00 | 0.00 | 0.00 | 75 | 1018.0 |
| 20260508111605 | 5 | 143 | 1.6 | 8.0 | 0.00 | 0.00 | 0.00 | 75 | 1017.9 |
| 20260508104530 | 5 | 131 | 1.6 | 8.0 | 0.00 | 0.00 | 0.00 | 76 | 1017.8 |
| 20260508103107 | 4 | 125 | 0.0 | 6.4 | 0.00 | 0.00 | 0.00 | 78 | 1017.8 |
| 20260508101534 | 3 | 149 | 1.6 | 8.0 | 0.00 | 0.00 | 0.00 | 79 | 1017.8 |
| 20260508100032 | 3 | 109 | 0.0 | 8.0 | 0.00 | 0.00 | 0.00 | 78 | 1017.8 |
| 20260508094532 | 3 | 123 | 0.0 | 9.7 | 0.00 | 0.00 | 0.00 | 75 | 1017.8 |
| 20260508091530 | 5 | 153 | 1.6 | 8.0 | 0.00 | 0.00 | 0.00 | 73 | 1017.8 |
| 20260508090030 | 5 | 150 | 3.2 | 6.4 | 0.00 | 0.00 | 0.00 | 70 | 1017.8 |
| 20260508083031 | 6 | 152 | 6.4 | 12.9 | 0.00 | 0.00 | 0.00 | 68 | 1017.8 |
| 20260508081530 | 6 | 148 | 6.4 | 11.3 | 0.00 | 0.00 | 0.00 | 69 | 1017.9 |
| 20260508074532 | 5 | 71 | 1.6 | 6.4 | 0.00 | 0.00 | 0.00 | 70 | 1017.9 |
| 20260508073032 | 5 | 151 | 3.2 | 6.4 | 0.00 | 0.00 | 0.00 | 68 | 1018.0 |
| 20260508071605 | 6 | 121 | 1.6 | 6.4 | 0.00 | 0.00 | 0.00 | 66 | 1018.0 |
| 20260508070030 | 6 | 146 | 6.4 | 11.3 | 0.00 | 0.00 | 0.00 | 65 | 1018.0 |
| 20260508064531 | 7 | 163 | 3.2 | 8.0 | 0.00 | 0.00 | 0.00 | 64 | 1018.1 |
| 20260508060029 | 7 | 185 | 1.6 | 8.0 | 0.00 | 0.00 | 0.00 | 62 | 1018.3 |
| 20260508054532 | 7 | 158 | 3.2 | 9.7 | 0.00 | 0.00 | 0.00 | 59 | 1018.2 |
| 20260508051529 | 9 | 356 | 1.6 | 6.4 | 0.00 | 0.00 | 0.00 | 52 | 1018.3 |
| 20260508050146 | 10 | 44 | 0.0 | 6.4 | 0.00 | 0.00 | 0.00 | 49 | 1018.3 |
| 20260508044532 | 10 | 347 | 1.6 | 6.4 | 0.00 | 0.00 | 0.00 | 47 | 1018.3 |
| 20260508043030 | 10 | 348 | 1.6 | 8.0 | 0.00 | 0.00 | 0.00 | 47 | 1018.2 |
| 20260508040031 | 11 | 95 | 1.6 | 8.0 | 0.00 | 0.00 | 0.00 | 44 | 1017.9 |
| 20260508034605 | 12 | 15 | 1.6 | 11.3 | 0.00 | 0.00 | 0.00 | 39 | 1017.7 |
| 20260508033104 | 14 | 242 | 1.6 | 6.4 | 0.00 | 0.00 | 0.00 | 36 | 1017.6 |
| 20260508031531 | 15 | 326 | 4.8 | 12.9 | 0.00 | 0.00 | 0.00 | 35 | 1017.4 |
| 20260508030031 | 16 | 320 | 6.4 | 16.1 | 0.00 | 0.00 | 0.00 | 35 | 1017.5 |
| 20260508024530 | 17 | 336 | 6.4 | 20.9 | 0.00 | 0.00 | 0.00 | 34 | 1017.4 |
| 20260508023107 | 17 | 311 | 6.4 | 16.1 | 0.00 | 0.00 | 0.00 | 34 | 1017.3 |
| 20260508021529 | 18 | 329 | 9.7 | 19.3 | 0.00 | 0.00 | 0.00 | 34 | 1017.1 |
| 20260508020029 | 19 | 308 | 8.0 | 20.9 | 0.00 | 0.00 | 0.00 | 34 | 1017.1 |
| 20260508014530 | 20 | 297 | 9.7 | 19.3 | 0.00 | 0.00 | 0.00 | 33 | 1017.1 |
| 20260508013030 | 20 | 287 | 6.4 | 17.7 | 0.00 | 0.00 | 0.00 | 32 | 1017.1 |
| 20260508011607 | 21 | 301 | 9.7 | 19.3 | 0.00 | 0.00 | 0.00 | 30 | 1017.2 |
| 20260508010032 | 21 | 301 | 11.3 | 20.9 | 0.00 | 0.00 | 0.00 | 28 | 1017.2 |
| 20260508004603 | 22 | 294 | 11.3 | 22.5 | 0.00 | 0.00 | 0.00 | 27 | 1017.1 |
| 20260508003029 | 22 | 292 | 8.0 | 24.1 | 0.00 | 0.00 | 0.00 | 27 | 1017.1 |
| 20260508001531 | 22 | 283 | 11.3 | 22.5 | 0.00 | 0.00 | 0.00 | 26 | 1017.1 |
| 20260507234533 | 22 | 299 | 12.9 | 32.2 | 0.00 | 0.00 | 0.00 | 25 | 1017.0 |
| 20260507233031 | 23 | 310 | 11.3 | 27.4 | 0.00 | 0.00 | 0.00 | 25 | 1017.1 |
| 20260507231529 | 23 | 303 | 12.9 | 32.2 | 0.00 | 0.00 | 0.00 | 25 | 1017.2 |
| 20260507230029 | 23 | 295 | 9.7 | 22.5 | 0.00 | 0.00 | 0.00 | 25 | 1017.3 |
| 20260507224607 | 23 | 297 | 11.3 | 19.3 | 0.00 | 0.00 | 0.00 | 25 | 1017.4 |
| 20260507223030 | 23 | 278 | 9.7 | 22.5 | 0.00 | 0.00 | 0.00 | 27 | 1017.5 |
| 20260507221529 | 22 | 301 | 8.0 | 17.7 | 0.00 | 0.00 | 0.00 | 28 | 1017.7 |
| 20260507214530 | 21 | 330 | 6.4 | 19.3 | 0.00 | 0.00 | 0.00 | 29 | 1018.1 |
| 20260507213030 | 21 | 318 | 11.3 | 25.7 | 0.00 | 0.00 | 0.00 | 30 | 1018.1 |
| 20260507211607 | 21 | 328 | 11.3 | 25.7 | 0.00 | 0.00 | 0.00 | 32 | 1018.1 |
| 20260507210107 | 20 | 329 | 9.7 | 29.0 | 0.00 | 0.00 | 0.00 | 32 | 1018.1 |
| 20260507203031 | 21 | 317 | 11.3 | 29.0 | 0.00 | 0.00 | 0.00 | 33 | 1018.4 |
| 20260507201607 | 21 | 306 | 11.3 | 29.0 | 0.00 | 0.00 | 0.00 | 31 | 1018.6 |
| 20260507200106 | 21 | 285 | 11.3 | 22.5 | 0.00 | 0.00 | 0.00 | 31 | 1018.7 |
| 20260507194531 | 21 | 283 | 12.9 | 24.1 | 0.00 | 0.00 | 0.00 | 31 | 1018.8 |
| 20260507193031 | 21 | 292 | 11.3 | 25.7 | 0.00 | 0.00 | 0.00 | 31 | 1018.9 |
| 20260507191604 | 21 | 291 | 12.9 | 24.1 | 0.00 | 0.00 | 0.00 | 32 | 1018.9 |
| 20260507190033 | 20 | 296 | 12.9 | 24.1 | 0.00 | 0.00 | 0.00 | 32 | 1019.1 |
| 20260507184529 | 20 | 300 | 14.5 | 22.5 | 0.00 | 0.00 | 0.00 | 33 | 1019.2 |
| 20260507181532 | 19 | 287 | 11.3 | 24.1 | 0.00 | 0.00 | 0.00 | 36 | 1019.4 |
| 20260507180103 | 18 | 289 | 11.3 | 27.4 | 0.00 | 0.00 | 0.00 | 37 | 1019.6 |
| 20260507174531 | 18 | 291 | 11.3 | 25.7 | 0.00 | 0.00 | 0.00 | 40 | 1019.8 |
| 20260507173028 | 18 | 288 | 14.5 | 22.5 | 0.00 | 0.00 | 0.00 | 42 | 1019.9 |
| 20260507170031 | 17 | 335 | 9.7 | 20.9 | 0.00 | 0.00 | 0.00 | 48 | 1019.8 |
| 20260507164531 | 17 | 337 | 9.7 | 17.7 | 0.00 | 0.00 | 0.00 | 49 | 1019.9 |
| 20260507163031 | 17 | 341 | 8.0 | 20.9 | 0.00 | 0.00 | 0.00 | 49 | 1019.9 |
| 20260507160107 | 16 | 322 | 11.3 | 20.9 | 0.00 | 0.00 | 0.00 | 51 | 1019.9 |
| 20260507154531 | 16 | 330 | 11.3 | 22.5 | 0.00 | 0.00 | 0.00 | 51 | 1020.0 |